Location: Dirimli Geçidi
(36.9547°N, 29.5914°E)
Time: 11:23:41
(UTC+00:00)

Daily predictions for brighter satellites

Satellite Brightness Start Highest point End
(mag) Time Altitude Azimuth Time Altitude Azimuth Time Altitude Azimuth
Cosmos 1459 Rocket 4.2 17:24:45 10° SSE 17:30:48 54° E 17:36:45 10° NNE
Cosmos 1302 Rocket 4.4 17:26:49 10° S 17:31:34 39° ESE 17:36:21 10° NE
Cosmos 2082 Rocket 2.6 17:26:32 10° S 17:31:52 43° ESE 17:37:15 10° NE
Terra 3.2 17:28:52 10° ESE 17:32:28 22° ENE 17:36:03 10° NNE
Cosmos 1536 Rocket 3.6 17:28:41 10° N 17:33:02 64° E 17:37:23 10° SSE
ATLAS CENTAUR Rocket 3.9 17:30:56 10° WSW 17:33:45 15° SSW 17:36:09 10° SSE
USA 305 4.1 17:30:41 10° NNW 17:34:08 26° NNE 17:37:21 10° E
Resurs 01 Rocket 3.3 17:30:23 10° SSW 17:34:22 35° W 17:38:23 10° NNW
Cosmos 1802 Rocket 4.4 17:30:05 10° SSE 17:35:51 43° E 17:41:35 10° NNE
Cosmos 676 Rocket 4.4 17:31:16 10° NNW 17:36:24 64° WSW 17:41:29 10° S
NOSS 3-3 (C) 3.9 17:35:14 10° S 17:39:52 41° ESE 17:45:05 10° NE
Cosmos 2151 Rocket 4.1 17:35:42 10° SSW 17:40:00 64° W 17:44:21 10° N
Okean 2 Rocket 3.2 17:36:08 10° S 17:40:36 88° WNW 17:45:06 10° N
Cosmos 1743 3.7 17:43:43 10° NNE 17:45:59 19° ENE 17:47:40 13° ESE
Delta 2 Rocket 2.8 17:43:32 10° WSW 17:46:36 48° SSE 17:49:24 11° E
USA 215 3.5 17:40:27 10° SE 17:46:55 69° SW 17:53:27 10° NW
Cosmos 292 Rocket 3.8 17:42:37 10° NNW 17:47:23 89° W 17:52:05 10° SSE
Cosmos 1697 Rocket 2.9 17:43:41 10° NNW 17:49:17 72° WSW 17:54:50 10° SSE
USA 229 DEB 4.4 17:43:29 10° NW 17:51:16 71° WSW 17:59:37 10° SSE
USA 229 4.4 17:43:31 10° NW 17:51:19 72° WSW 17:59:41 10° SSE
SJ 16-02 4.4 17:51:08 10° W 17:52:11 11° W 17:53:14 10° WSW
Cosmos 2100 Rocket 4.1 17:45:58 10° S 17:52:12 89° W 17:58:32 10° N
Helios 1A Rocket 2.5 17:51:46 10° NNE 17:54:49 45° E 17:57:49 10° S
DELTA 2 R/B (1) 3.8 17:50:07 10° W 17:55:42 74° N 18:01:16 10° ENE
Cosmos 1455 Rocket 3.1 17:51:32 10° S 17:55:50 57° E 18:00:09 10° NNE
Meteor 1-27 4.3 17:50:40 10° S 17:56:11 57° E 18:01:39 10° NNE
Meteor 1-31 Rocket 2.5 17:53:12 10° SSE 17:56:38 66° ENE 18:00:05 10° N
IRAS Rocket 4.3 17:53:22 10° SSE 17:58:44 65° ENE 18:04:11 10° N
Okean O Rocket 3.3 17:56:46 12° E 17:58:57 17° ENE 18:01:45 10° NNE
Cosmos 1850 Rocket 3.9 17:55:26 10° NNW 18:00:37 76° ENE 18:05:36 11° SSE
SPOT 5 3.0 17:56:30 10° S 18:00:45 63° WSW 18:05:05 10° NNW
SL-24 R/B 4.3 17:57:31 10° NNE 18:01:57 89° ESE 18:07:00 10° SSW
Cosmos 1892 Rocket 4.0 17:58:24 10° N 18:02:31 42° E 18:05:41 15° SE
Cosmos 2228 3.4 17:59:02 10° SSE 18:02:51 39° E 18:06:41 10° NNE
Cosmos 2233 Rocket 4.3 17:57:09 10° SSE 18:02:57 44° E 18:08:44 10° NNE
SL-16 R/B 4.2 18:01:00 10° NNE 18:03:51 14° NE 18:06:41 10° E
Okean 1 Rocket 4.2 18:03:57 10° SSW 18:08:09 46° W 18:12:25 10° N
CZ-3 Stage 3 3.1 18:06:34 10° SSW 18:09:09 14° S 18:09:52 13° SSE
USA 186 3.8 18:10:49 10° ENE 18:10:49 10° ENE 18:11:16 10° ENE
COSMOS 2406 3.5 18:07:11 10° S 18:12:35 44° ESE 18:18:00 10° NE
MetOp-B 4.2 18:11:30 15° SSE 18:15:58 62° ENE 18:21:15 10° N
Cosmos 2084 Rocket 4.3 18:13:48 10° NNW 18:17:41 35° NE 18:19:50 21° ESE
Okean-O 3.7 18:17:41 21° ESE 18:19:31 28° ENE 18:23:15 10° NNE
Cosmos 1980 Rocket 2.2 18:14:29 10° NNW 18:20:13 88° ENE 18:24:35 18° SSE
BREEZE-M DEB (TANK) 3.1 18:11:39 10° SW 18:20:14 84° SSE 18:23:04 10° NE
CSL-04 Rocket 4.4 18:15:08 10° S 18:20:29 53° W 18:25:48 10° NNW
Cosmos 1725 Rocket 4.0 18:15:10 10° S 18:21:27 86° W 18:27:43 10° N
CZ-4 R/B 1.8 18:18:38 10° S 18:22:10 53° W 18:25:44 10° NNW
Cosmos 1782 2.4 18:19:09 10° S 18:22:39 83° W 18:26:10 10° N
ASTEX 1 4.4 18:19:06 10° SSW 18:23:50 45° W 18:28:35 10° NNW
Spot 2 Rocket 4.1 18:22:03 22° SE 18:24:41 39° ENE 18:29:20 10° N
SKYMED 3 4.2 18:21:03 10° NNE 18:25:01 87° ESE 18:28:59 10° SSW
SL-4 R/B 4.3 18:23:31 10° W 18:25:42 15° SW 18:27:54 10° SSW
ATLAS 3B R/B 3.4 18:20:09 10° NW 18:27:33 55° WSW 18:33:49 13° S
ERS-1 Rocket 3.0 18:26:32 14° S 18:30:49 79° WSW 18:35:52 10° NNW
Cosmos 2333 Rocket 3.8 18:27:35 10° N 18:31:47 20° NE 18:34:15 16° E
Milstar 3 3.7 18:29:35 10° WSW 18:35:39 37° S 18:39:42 23° SE
Cosmos 2016 Rocket 4.2 18:29:52 10° SSW 18:36:07 72° W 18:42:20 10° N
Tsikada Rocket 4.0 18:30:56 10° N 18:37:01 63° E 18:40:46 24° SSE
CZ-4B R/B 3.3 18:37:33 18° S 18:41:51 81° WSW 18:47:30 10° NNW
Cosmos 2360 Rocket 4.1 18:42:33 10° NNE 18:45:48 15° NE 18:47:55 13° ENE
Cosmos 1992 Rocket 4.2 18:42:05 10° SSW 18:47:16 72° WNW 18:52:29 10° NNE
Cosmos 1461 2.8 18:45:50 10° SW 18:49:30 68° WNW 18:53:11 10° NNE
Meteor 2-12 Rocket 4.4 18:43:58 10° N 18:50:05 90° SW 18:54:02 23° S
Cosmos 2219 Rocket 4.4 18:56:56 10° NNE 18:59:06 12° NE 19:01:07 10° ENE
USA 305 3.0 18:55:47 10° WNW 18:59:36 43° SW 18:59:50 42° SW
YAOGAN 11 4.2 18:55:45 10° N 19:00:12 77° WNW 19:02:59 23° SSW
Cosmos 220 Rocket 3.8 19:00:17 58° ESE 19:00:17 58° ESE 19:04:18 10° NNE
Cosmos 1437 Rocket 2.5 19:02:54 64° ENE 19:02:54 64° ENE 19:06:08 10° NNE
Gbstr 26 Del rocket 3.3 19:00:04 10° WNW 19:04:46 52° SW 19:05:31 45° SSW
Cosmos 2098 Rocket 3.8 19:07:46 39° E 19:07:46 39° E 19:11:43 10° NNE
Cosmos 1513 Rocket 4.5 19:06:37 37° SSE 19:09:02 62° E 19:15:06 10° NNE
GEOS 3 Rocket 4.4 19:07:19 28° S 19:09:37 44° WSW 19:14:43 10° NW
Terra 3.2 19:06:35 16° SSW 19:09:44 33° W 19:13:59 10° NNW
Cosmos 1464 Rocket 4.4 19:09:13 38° ESE 19:10:12 41° E 19:15:55 10° NNE
Cosmos 2061 Rocket 4.4 19:04:46 10° SSW 19:10:53 61° W 19:17:06 10° N
Cosmos 1626 Rocket 3.4 19:09:05 10° N 19:13:29 85° E 19:14:01 68° SSE
Cosmos 2082 Rocket 4.4 19:11:26 10° WSW 19:16:05 25° WNW 19:20:44 10° N
Cosmos 2322 Rocket 3.3 19:13:04 10° N 19:17:58 29° ENE 19:18:59 27° ENE
Cosmos 2237 4.4 19:13:27 10° NNW 19:19:10 69° WSW 19:21:01 43° S
Cosmos 2151 2.9 19:18:16 10° N 19:22:05 71° NE 19:22:05 71° NE
Cosmos 2369 4.3 19:19:40 10° NNW 19:25:12 52° WSW 19:27:11 36° SSW
Cosmos 1072 Rocket 4.4 19:26:52 51° SSE 19:28:17 66° E 19:34:32 10° NNE
Cosmos 540 Rocket 4.3 19:33:38 35° ENE 19:33:38 35° ENE 19:37:07 10° NNE
CZ-4B R/B 3.7 19:35:01 38° N 19:35:01 38° N 19:37:14 10° NNW
Okean O Rocket 2.7 19:34:00 33° WSW 19:34:49 36° W 19:38:48 10° NNW
Chandra Rocket (1) 3.8 19:17:49 10° W 19:37:08 49° SSW 19:38:38 45° SSE
USA 186 4.4 19:40:56 15° WNW 19:40:56 15° WNW 19:41:50 10° NW
DELTA 2 R/B (1) 3.7 19:36:47 10° WNW 19:42:21 72° N 19:43:28 55° ENE
Cosmos 2278 3.6 19:38:24 10° NNW 19:44:06 68° ENE 19:44:30 66° E
Meteor 1-5 Rocket 4.3 19:41:15 10° N 19:47:02 66° E 19:47:20 64° E
Cosmos 2034 Rocket 4.1 19:48:12 56° ESE 19:48:28 57° E 19:54:39 10° NNE
SL-16 R/B 2.0 19:42:57 10° NNW 19:48:39 84° WSW 19:49:05 76° S
NOSS 3-4 (A) 4.3 19:42:15 10° NNW 19:49:06 54° NE 19:51:14 43° E
NOSS 3-4 (C) 4.3 19:42:53 10° NNW 19:49:45 53° NE 19:51:53 43° E
Okean 1-7 Rocket 4.2 19:49:49 10° N 19:53:16 51° NNE 19:53:16 51° NNE
Okean-O 4.4 19:55:00 21° WSW 19:55:44 22° W 19:59:10 10° NW
Ariane Rocket 3.0 19:58:02 71° W 19:58:02 71° W 20:03:01 10° NNW
SPOT 3 Rocket 4.0 20:01:10 49° WSW 20:01:28 49° W 20:06:26 10° NNW
Nadezhda 4 Rocket 3.8 20:05:16 10° N 20:11:24 85° W 20:11:39 82° SSW
Cosmos 1763 Rocket 3.7 20:13:22 68° NW 20:13:22 68° NW 20:18:25 10° NNE
DNEPR-1 R/B 4.4 20:09:26 10° NNW 20:15:24 88° ENE 20:15:40 83° SE
Cosmos 2333 Rocket 2.6 20:10:50 10° NNW 20:16:16 55° WSW 20:16:16 55° WSW
Cosmos 1833 4.4 20:16:05 62° W 20:16:33 65° WNW 20:22:10 10° NNE
Cosmos 2195 Rocket 4.4 20:23:26 10° N 20:29:20 81° N 20:29:20 81° N
Cosmos 2360 Rocket 2.4 20:24:43 10° NNW 20:29:39 65° NW 20:29:39 65° NW
Cosmos 2026 Rocket 4.0 20:27:42 10° N 20:33:45 78° NE 20:33:45 78° NE
Cosmos 2219 Rocket 2.6 20:38:11 10° NNW 20:42:48 60° NNW 20:42:48 60° NNW
Cosmos 2322 Rocket 3.5 20:56:51 10° NW 21:00:46 32° WNW 21:00:46 32° WNW
Cosmos 2237 Rocket 4.0 21:16:09 10° N 21:20:30 22° ENE 21:20:31 22° ENE
Aureole 1 Rocket 4.4 21:17:33 10° NNW 21:22:39 59° NW 21:22:39 59° NW
Cosmos 2227 Rocket 4.3 21:29:18 17° ENE 21:29:18 17° ENE 21:30:59 10° NE
COSMOS 2428 3.6 21:26:07 10° NNW 21:30:13 46° N 21:30:13 46° N
USA 234 3.5 21:40:31 10° NE 21:46:58 64° NW 21:47:10 63° NW
ACS3 Solar Sail 3.3 21:50:20 10° NE 21:53:51 24° ENE 21:53:51 24° ENE
CZ-2C R/B 4.1 21:50:41 10° NNE 21:54:49 49° NNE 21:54:49 49° NNE
Cosmos 2297 Rocket 3.1 22:01:44 44° N 22:01:44 44° N 22:05:41 10° NNE
BREEZE-M DEB (TANK) 4.4 22:03:09 10° WSW 22:24:53 70° NW 22:30:22 10° NE
Cosmos 2219 4.4 22:51:04 35° ENE 22:51:04 35° ENE 22:54:54 10° NE
Lacrosse 4 Rocket 4.0 22:51:57 16° NNW 22:51:57 16° NNW 22:53:08 10° N
SL-16 R/B 3.5 22:47:47 10° N 22:52:56 33° ENE 22:53:45 32° ENE
CZ-2C R/B 4.1 22:58:57 28° NW 22:58:57 28° NW 23:01:37 10° NNW
Cosmos 2237 Rocket 3.6 22:59:20 10° NNW 23:02:17 30° NW 23:02:17 30° NW
Cosmos 2227 Rocket 3.1 23:11:04 40° NW 23:11:04 40° NW 23:15:38 10° N
Cosmos 2263 Rocket 2.8 23:20:54 50° NNW 23:20:54 50° NNW 23:25:30 10° NNE
ADEOS Rocket 4.0 23:14:20 10° NNE 23:21:30 44° E 23:22:57 40° SE
SeaSat 1 3.8 23:28:37 31° NW 23:28:37 31° NW 23:31:11 10° NNW
ACS3 Solar Sail 2.4 23:32:08 10° N 23:37:20 41° WNW 23:37:20 41° WNW
S3M 3.8 23:40:11 87° SSE 23:40:18 88° E 23:46:29 10° N
Cosmos 1570 Rocket 4.2 23:42:50 66° N 23:42:50 66° N 23:47:26 10° NNE
ATLAS 2AS CENTAUR R/B 4.3 23:38:15 10° NNW 23:44:10 31° NE 23:50:08 10° ESE
Cosmos 2315 Rocket 3.9 23:50:00 72° SSE 23:50:40 84° E 23:57:03 10° N
Resurs 1-4 Rocket 3.9 23:46:49 10° NE 23:50:54 23° E 23:52:32 20° ESE
Cosmos 1844 Rocket 3.2 23:50:48 47° ESE 23:51:05 47° ESE 23:56:25 10° NE
Cosmos 1125 Rocket 3.9 23:46:38 10° NNW 23:50:48 55° NW 23:50:48 55° NW
MSX 3.7 23:46:09 10° NNE 23:51:57 84° WNW 23:52:04 83° WSW
Cosmos 2082 3.7 23:53:05 67° NW 23:53:05 67° NW 23:58:31 10° NNE
